Time,TemperatureF,DewpointF,PressureIn,WindDirection,WindDirectionDegrees,WindSpeedMPH,WindSpeedGustMPH,Humidity,HourlyPrecipIn,Conditions,Clouds,dailyrainin,SoftwareType,DateUTC
2013-06-23 00:00:00,61.4,59.7,29.96,SSE,159,0.0,8.0,94,0.00,,,0.00,Wunderground v.1.15,2013-06-23 05:00:00,
2013-06-23 00:05:00,61.5,59.8,29.97,SSE,159,0.0,8.0,94,0.00,,,0.00,Wunderground v.1.15,2013-06-23 05:05:00,
2013-06-23 00:10:00,61.4,59.7,29.96,South,182,0.0,8.0,94,0.00,,,0.00,Wunderground v.1.15,2013-06-23 05:10:00,
2013-06-23 00:15:00,61.3,59.6,29.96,South,188,0.0,8.0,94,0.00,,,0.00,Wunderground v.1.15,2013-06-23 05:15:00,
2013-06-23 00:20:00,61.3,59.6,29.96,South,188,0.0,8.0,94,0.00,,,0.00,Wunderground v.1.15,2013-06-23 05:20:00,
2013-06-23 00:25:00,61.2,59.5,29.97,SW,223,0.0,8.0,94,0.00,,,0.00,Wunderground v.1.15,2013-06-23 05:25:00,
2013-06-23 00:30:00,61.1,59.4,29.97,South,171,1.0,8.0,94,0.00,,,0.00,Wunderground v.1.15,2013-06-23 05:30:00,
2013-06-23 00:35:00,61.1,59.4,29.98,South,184,2.0,8.0,94,0.00,,,0.00,Wunderground v.1.15,2013-06-23 05:35:00,
2013-06-23 00:40:00,61.1,59.4,29.98,SSE,167,3.0,8.0,94,0.00,,,0.00,Wunderground v.1.15,2013-06-23 05:40:00,
2013-06-23 00:45:00,61.1,59.4,29.98,South,171,4.0,8.0,94,0.00,,,0.00,Wunderground v.1.15,2013-06-23 05:45:00,
2013-06-23 00:55:00,61.1,59.4,29.97,SSE,164,3.0,6.0,94,0.00,,,0.00,Wunderground v.1.15,2013-06-23 05:55:00,
2013-06-23 01:00:00,61.2,59.5,29.97,South,173,4.0,8.0,94,0.00,,,0.00,Wunderground v.1.15,2013-06-23 06:00:00,
2013-06-23 01:05:00,61.3,59.6,29.96,SW,215,4.0,8.0,94,0.00,,,0.01,Wunderground v.1.15,2013-06-23 06:05:00,
2013-06-23 01:10:00,61.2,59.5,29.95,SW,220,3.0,3.0,94,0.25,,,0.03,Wunderground v.1.15,2013-06-23 06:10:00,
2013-06-23 01:15:00,61.3,59.6,29.94,South,185,3.0,8.0,94,0.19,,,0.04,Wunderground v.1.15,2013-06-23 06:15:00,
2013-06-23 01:20:00,61.3,59.6,29.94,SW,223,3.0,3.0,94,0.11,,,0.05,Wunderground v.1.15,2013-06-23 06:20:00,
2013-06-23 01:25:00,61.3,59.6,29.93,SSE,151,3.0,6.0,94,0.09,,,0.06,Wunderground v.1.15,2013-06-23 06:25:00,
2013-06-23 01:30:00,61.4,59.7,29.93,SSW,207,2.0,8.0,94,0.07,,,0.06,Wunderground v.1.15,2013-06-23 06:30:00,
2013-06-23 01:35:00,61.4,59.7,29.92,SSE,155,1.0,8.0,94,0.05,,,0.07,Wunderground v.1.15,2013-06-23 06:35:00,
2013-06-23 01:45:00,61.5,59.8,29.91,East,84,1.0,8.0,94,0.06,,,0.08,Wunderground v.1.15,2013-06-23 06:45:00,
2013-06-23 01:50:00,61.6,60.2,29.91,SSW,208,1.0,8.0,95,0.06,,,0.08,Wunderground v.1.15,2013-06-23 06:50:00,
2013-06-23 01:55:00,61.7,60.3,29.92,SSW,209,2.0,8.0,95,0.05,,,0.08,Wunderground v.1.15,2013-06-23 06:55:00,
2013-06-23 02:00:00,61.8,60.4,29.92,SSE,148,2.0,8.0,95,0.04,,,0.09,Wunderground v.1.15,2013-06-23 07:00:00,
2013-06-23 02:05:00,62.0,60.6,29.91,SE,142,2.0,8.0,95,0.04,,,0.09,Wunderground v.1.15,2013-06-23 07:05:00,
2013-06-23 02:10:00,62.1,60.7,29.91,SSE,155,3.0,3.0,95,0.04,,,0.09,Wunderground v.1.15,2013-06-23 07:10:00,
2013-06-23 02:15:00,62.1,60.7,29.90,SSE,152,2.0,8.0,95,0.00,,,0.09,Wunderground v.1.15,2013-06-23 07:15:00,
2013-06-23 02:20:00,62.0,60.3,29.90,East,101,1.0,8.0,94,0.00,,,0.09,Wunderground v.1.15,2013-06-23 07:20:00,
2013-06-23 02:25:00,62.0,60.6,29.89,SW,220,1.0,8.0,95,0.00,,,0.09,Wunderground v.1.15,2013-06-23 07:25:00,
2013-06-23 02:30:00,62.0,60.6,29.89,SSE,155,1.0,8.0,95,0.00,,,0.09,Wunderground v.1.15,2013-06-23 07:30:00,
2013-06-23 02:35:00,62.0,60.6,29.89,ESE,113,1.0,8.0,95,0.00,,,0.09,Wunderground v.1.15,2013-06-23 07:35:00,
2013-06-23 02:45:00,62.0,60.6,29.87,SE,145,0.0,8.0,95,0.00,,,0.09,Wunderground v.1.15,2013-06-23 07:45:00,
2013-06-23 02:50:00,62.0,60.6,29.87,SE,145,0.0,8.0,95,0.00,,,0.09,Wunderground v.1.15,2013-06-23 07:50:00,
2013-06-23 02:55:00,62.0,60.6,29.85,SE,145,0.0,8.0,95,0.00,,,0.09,Wunderground v.1.15,2013-06-23 07:55:00,
2013-06-23 03:00:00,62.0,60.6,29.85,SSE,150,0.0,8.0,95,0.00,,,0.09,Wunderground v.1.15,2013-06-23 08:00:00,
2013-06-23 03:05:00,62.1,60.7,29.85,SSE,152,0.0,8.0,95,0.00,,,0.09,Wunderground v.1.15,2013-06-23 08:05:00,
2013-06-23 03:10:00,62.1,60.7,29.85,SSE,162,0.0,8.0,95,0.00,,,0.09,Wunderground v.1.15,2013-06-23 08:10:00,
2013-06-23 03:20:00,62.3,60.8,29.84,SW,219,1.0,8.0,95,0.00,,,0.09,Wunderground v.1.15,2013-06-23 08:20:00,
2013-06-23 03:25:00,62.5,61.0,29.85,SW,235,1.0,8.0,95,0.00,,,0.09,Wunderground v.1.15,2013-06-23 08:25:00,
2013-06-23 03:30:00,62.6,61.1,29.86,South,184,2.0,2.0,95,0.00,,,0.09,Wunderground v.1.15,2013-06-23 08:30:00,
2013-06-23 03:35:00,62.8,61.3,29.86,NNW,333,2.0,6.0,95,0.00,,,0.09,Wunderground v.1.15,2013-06-23 08:35:00,
2013-06-23 03:40:00,62.9,61.4,29.87,WNW,290,3.0,3.0,95,0.00,,,0.09,Wunderground v.1.15,2013-06-23 08:40:00,
2013-06-23 03:45:00,63.0,61.5,29.87,WNW,297,3.0,8.0,95,0.00,,,0.09,Wunderground v.1.15,2013-06-23 08:45:00,
2013-06-23 03:50:00,63.0,61.5,29.89,WNW,296,3.0,8.0,95,0.00,,,0.09,Wunderground v.1.15,2013-06-23 08:50:00,
2013-06-23 04:00:00,63.1,61.6,29.89,NW,315,2.0,8.0,95,0.00,,,0.10,Wunderground v.1.15,2013-06-23 09:00:00,
2013-06-23 04:05:00,63.2,62.0,29.90,WNW,293,3.0,8.0,96,0.00,,,0.10,Wunderground v.1.15,2013-06-23 09:05:00,
2013-06-23 04:10:00,63.3,62.1,29.90,WNW,299,3.0,8.0,96,0.00,,,0.10,Wunderground v.1.15,2013-06-23 09:10:00,
2013-06-23 04:15:00,63.5,62.3,29.90,West,269,4.0,8.0,96,0.00,,,0.10,Wunderground v.1.15,2013-06-23 09:15:00,
2013-06-23 04:20:00,63.6,62.4,29.89,West,280,3.0,8.0,96,0.00,,,0.10,Wunderground v.1.15,2013-06-23 09:20:00,
2013-06-23 04:30:00,63.8,62.6,29.89,WNW,298,3.0,3.0,96,0.00,,,0.10,Wunderground v.1.15,2013-06-23 09:30:00,
2013-06-23 04:35:00,63.8,62.6,29.89,WNW,300,2.0,8.0,96,0.00,,,0.10,Wunderground v.1.15,2013-06-23 09:35:00,
2013-06-23 04:40:00,63.9,62.7,29.89,WSW,242,1.0,1.0,96,0.00,,,0.10,Wunderground v.1.15,2013-06-23 09:40:00,
2013-06-23 04:50:00,64.0,62.8,29.90,WNW,295,1.0,8.0,96,0.00,,,0.10,Wunderground v.1.15,2013-06-23 09:50:00,
2013-06-23 04:55:00,64.0,62.8,29.89,NNW,336,2.0,8.0,96,0.00,,,0.10,Wunderground v.1.15,2013-06-23 09:55:00,
2013-06-23 05:00:00,64.0,62.8,29.88,East,80,1.0,8.0,96,0.00,,,0.10,Wunderground v.1.15,2013-06-23 10:00:00,
2013-06-23 05:05:00,63.9,62.7,29.89,NE,51,0.0,8.0,96,0.00,,,0.10,Wunderground v.1.15,2013-06-23 10:05:00,
2013-06-23 05:10:00,63.6,62.4,29.89,NE,51,0.0,8.0,96,0.00,,,0.10,Wunderground v.1.15,2013-06-23 10:10:00,
2013-06-23 05:15:00,63.6,62.4,29.90,ESE,118,0.0,8.0,96,0.00,,,0.10,Wunderground v.1.15,2013-06-23 10:15:00,
2013-06-23 05:20:00,63.7,62.5,29.90,ESE,118,1.0,1.0,96,0.00,,,0.10,Wunderground v.1.15,2013-06-23 10:20:00,
2013-06-23 05:25:00,63.7,62.5,29.91,ESE,118,1.0,8.0,96,0.00,,,0.10,Wunderground v.1.15,2013-06-23 10:25:00,
2013-06-23 05:30:00,63.8,62.6,29.90,ESE,118,1.0,8.0,96,0.00,,,0.10,Wunderground v.1.15,2013-06-23 10:30:00,
2013-06-23 05:35:00,63.8,62.6,29.90,East,90,1.0,8.0,96,0.00,,,0.10,Wunderground v.1.15,2013-06-23 10:35:00,
2013-06-23 05:40:00,63.9,62.7,29.90,East,101,1.0,8.0,96,0.00,,,0.10,Wunderground v.1.15,2013-06-23 10:40:00,
2013-06-23 05:45:00,63.9,62.7,29.89,ENE,71,2.0,8.0,96,0.00,,,0.10,Wunderground v.1.15,2013-06-23 10:45:00,
2013-06-23 05:50:00,64.1,62.9,29.90,ESE,103,1.0,1.0,96,0.00,,,0.10,Wunderground v.1.15,2013-06-23 10:50:00,
2013-06-23 05:55:00,64.1,62.9,29.89,ESE,103,0.0,8.0,96,0.00,,,0.10,Wunderground v.1.15,2013-06-23 10:55:00,
2013-06-23 06:00:00,64.2,63.0,29.88,ENE,67,1.0,8.0,96,0.00,,,0.10,Wunderground v.1.15,2013-06-23 11:00:00,
2013-06-23 06:05:00,64.1,62.9,29.88,ENE,61,2.0,8.0,96,0.00,,,0.10,Wunderground v.1.15,2013-06-23 11:05:00,
2013-06-23 06:10:00,63.9,62.7,29.88,East,91,2.0,8.0,96,0.00,,,0.10,Wunderground v.1.15,2013-06-23 11:10:00,
2013-06-23 06:15:00,63.6,62.4,29.88,East,83,4.0,8.0,96,0.00,,,0.10,Wunderground v.1.15,2013-06-23 11:15:00,
2013-06-23 06:20:00,63.4,62.2,29.87,ENE,60,4.0,4.0,96,0.00,,,0.10,Wunderground v.1.15,2013-06-23 11:20:00,
2013-06-23 06:30:00,63.3,62.1,29.88,SE,124,2.0,2.0,96,0.00,,,0.10,Wunderground v.1.15,2013-06-23 11:30:00,
2013-06-23 06:35:00,63.2,62.0,29.88,East,92,1.0,8.0,96,0.00,,,0.10,Wunderground v.1.15,2013-06-23 11:35:00,
2013-06-23 06:40:00,63.2,62.0,29.88,ENE,57,1.0,1.0,96,0.00,,,0.10,Wunderground v.1.15,2013-06-23 11:40:00,
2013-06-23 06:45:00,63.2,62.0,29.87,NE,49,1.0,2.0,96,0.00,,,0.10,Wunderground v.1.15,2013-06-23 11:45:00,
2013-06-23 06:55:00,63.4,62.2,29.88,NE,55,2.0,8.0,96,0.00,,,0.10,Wunderground v.1.15,2013-06-23 11:55:00,
2013-06-23 07:00:00,63.5,62.3,29.88,ESE,115,1.0,8.0,96,0.00,,,0.10,Wunderground v.1.15,2013-06-23 12:00:00,
2013-06-23 07:05:00,63.6,62.4,29.88,ESE,108,2.0,8.0,96,0.00,,,0.10,Wunderground v.1.15,2013-06-23 12:05:00,
2013-06-23 07:10:00,63.7,62.5,29.88,ESE,111,2.0,8.0,96,0.00,,,0.10,Wunderground v.1.15,2013-06-23 12:10:00,
2013-06-23 07:15:00,63.8,62.6,29.89,SSE,166,1.0,8.0,96,0.00,,,0.10,Wunderground v.1.15,2013-06-23 12:15:00,
2013-06-23 07:20:00,63.9,62.7,29.89,ENE,68,2.0,8.0,96,0.00,,,0.10,Wunderground v.1.15,2013-06-23 12:20:00,
2013-06-23 07:25:00,64.1,62.9,29.89,ESE,105,2.0,8.0,96,0.00,,,0.10,Wunderground v.1.15,2013-06-23 12:25:00,
2013-06-23 07:30:00,64.1,62.9,29.89,East,100,3.0,8.0,96,0.00,,,0.10,Wunderground v.1.15,2013-06-23 12:30:00,
2013-06-23 07:35:00,64.1,62.9,29.90,South,176,2.0,8.0,96,0.00,,,0.10,Wunderground v.1.15,2013-06-23 12:35:00,
2013-06-23 07:40:00,64.0,62.8,29.90,SSE,153,2.0,2.0,96,0.00,,,0.10,Wunderground v.1.15,2013-06-23 12:40:00,
2013-06-23 07:45:00,64.0,62.8,29.90,SSE,167,1.0,4.0,96,0.00,,,0.10,Wunderground v.1.15,2013-06-23 12:45:00,
2013-06-23 07:50:00,64.0,62.8,29.91,ESE,112,1.0,8.0,96,0.00,,,0.10,Wunderground v.1.15,2013-06-23 12:50:00,
2013-06-23 07:55:00,64.0,62.8,29.91,East,83,2.0,8.0,96,0.00,,,0.10,Wunderground v.1.15,2013-06-23 12:55:00,
2013-06-23 08:00:00,64.0,62.8,29.91,ENE,78,2.0,8.0,96,0.00,,,0.10,Wunderground v.1.15,2013-06-23 13:00:00,
2013-06-23 08:05:00,64.1,62.9,29.92,ENE,67,2.0,8.0,96,0.00,,,0.10,Wunderground v.1.15,2013-06-23 13:05:00,
2013-06-23 08:10:00,64.1,62.9,29.92,ENE,57,2.0,8.0,96,0.00,,,0.10,Wunderground v.1.15,2013-06-23 13:10:00,
2013-06-23 08:20:00,64.5,63.6,29.92,ESE,108,2.0,2.0,97,0.00,,,0.10,Wunderground v.1.15,2013-06-23 13:20:00,
2013-06-23 08:25:00,64.5,63.3,29.92,ENE,72,2.0,8.0,96,0.00,,,0.10,Wunderground v.1.15,2013-06-23 13:25:00,
2013-06-23 08:35:00,64.5,63.3,29.92,ENE,71,4.0,8.0,96,0.00,,,0.10,Wunderground v.1.15,2013-06-23 13:35:00,
2013-06-23 08:40:00,64.8,63.6,29.91,ENE,77,4.0,8.0,96,0.00,,,0.10,Wunderground v.1.15,2013-06-23 13:40:00,
2013-06-23 08:50:00,64.5,63.3,29.92,SE,136,4.0,8.0,96,0.00,,,0.10,Wunderground v.1.15,2013-06-23 13:50:00,
2013-06-23 09:00:00,64.8,63.6,29.91,ENE,65,5.0,5.0,96,0.00,,,0.10,Wunderground v.1.15,2013-06-23 14:00:00,
2013-06-23 09:05:00,64.9,63.7,29.91,ESE,113,4.0,8.0,96,0.00,,,0.10,Wunderground v.1.15,2013-06-23 14:05:00,
2013-06-23 09:10:00,65.1,63.9,29.91,ESE,119,3.0,8.0,96,0.00,,,0.10,Wunderground v.1.15,2013-06-23 14:10:00,
2013-06-23 09:15:00,65.2,64.0,29.92,SE,138,3.0,8.0,96,0.00,,,0.10,Wunderground v.1.15,2013-06-23 14:15:00,
2013-06-23 09:20:00,65.4,64.2,29.92,ESE,105,2.0,8.0,96,0.00,,,0.10,Wunderground v.1.15,2013-06-23 14:20:00,
2013-06-23 09:25:00,65.6,64.4,29.92,SE,138,2.0,8.0,96,0.00,,,0.10,Wunderground v.1.15,2013-06-23 14:25:00,
2013-06-23 09:30:00,65.7,64.8,29.93,SW,217,2.0,8.0,97,0.00,,,0.10,Wunderground v.1.15,2013-06-23 14:30:00,
2013-06-23 09:35:00,65.8,64.6,29.94,South,182,2.0,8.0,96,0.00,,,0.10,Wunderground v.1.15,2013-06-23 14:35:00,
2013-06-23 09:40:00,66.0,64.8,29.94,South,174,3.0,3.0,96,0.00,,,0.10,Wunderground v.1.15,2013-06-23 14:40:00,
2013-06-23 09:45:00,66.1,64.9,29.93,SW,217,2.0,8.0,96,0.00,,,0.10,Wunderground v.1.15,2013-06-23 14:45:00,
2013-06-23 09:50:00,66.5,65.3,29.93,SE,130,2.0,8.0,96,0.00,,,0.10,Wunderground v.1.15,2013-06-23 14:50:00,
2013-06-23 09:55:00,67.1,66.2,29.93,South,170,2.0,8.0,97,0.00,,,0.10,Wunderground v.1.15,2013-06-23 14:55:00,
2013-06-23 10:00:00,67.4,66.2,29.93,South,169,3.0,8.0,96,0.00,,,0.10,Wunderground v.1.15,2013-06-23 15:00:00,
2013-06-23 10:05:00,67.9,67.0,29.92,SSE,163,3.0,8.0,97,0.00,,,0.10,Wunderground v.1.15,2013-06-23 15:05:00,
2013-06-23 10:15:00,68.8,67.6,29.91,SSE,155,2.0,4.0,96,0.00,,,0.10,Wunderground v.1.15,2013-06-23 15:15:00,
2013-06-23 10:20:00,69.4,68.2,29.91,SSW,197,2.0,8.0,96,0.00,,,0.10,Wunderground v.1.15,2013-06-23 15:20:00,
2013-06-23 10:25:00,70.0,68.8,29.91,SSW,203,3.0,8.0,96,0.00,,,0.10,Wunderground v.1.15,2013-06-23 15:25:00,
2013-06-23 10:30:00,70.3,69.1,29.91,SE,135,3.0,8.0,96,0.00,,,0.10,Wunderground v.1.15,2013-06-23 15:30:00,
2013-06-23 10:35:00,71.0,69.5,29.91,NNE,15,2.0,8.0,95,0.00,,,0.10,Wunderground v.1.15,2013-06-23 15:35:00,
2013-06-23 10:40:00,71.2,69.7,29.91,SSW,199,1.0,8.0,95,0.00,,,0.10,Wunderground v.1.15,2013-06-23 15:40:00,
2013-06-23 10:45:00,71.4,69.6,29.91,SSW,198,2.0,8.0,94,0.00,,,0.10,Wunderground v.1.15,2013-06-23 15:45:00,
2013-06-23 10:50:00,71.3,69.2,29.91,East,86,3.0,3.0,93,0.00,,,0.10,Wunderground v.1.15,2013-06-23 15:50:00,
2013-06-23 10:55:00,71.9,70.1,29.91,ESE,115,3.0,8.0,94,0.00,,,0.10,Wunderground v.1.15,2013-06-23 15:55:00,
2013-06-23 11:00:00,72.2,70.1,29.91,SE,143,3.0,8.0,93,0.00,,,0.10,Wunderground v.1.15,2013-06-23 16:00:00,
2013-06-23 11:05:00,71.9,69.1,29.91,ESE,115,3.0,8.0,91,0.00,,,0.10,Wunderground v.1.15,2013-06-23 16:05:00,
2013-06-23 11:10:00,71.6,68.8,29.91,SE,142,3.0,8.0,91,0.00,,,0.10,Wunderground v.1.15,2013-06-23 16:10:00,
2013-06-23 11:15:00,71.6,68.8,29.91,SE,134,3.0,8.0,91,0.00,,,0.10,Wunderground v.1.15,2013-06-23 16:15:00,
2013-06-23 11:20:00,71.9,69.1,29.90,East,96,4.0,8.0,91,0.00,,,0.10,Wunderground v.1.15,2013-06-23 16:20:00,
2013-06-23 11:25:00,72.1,69.0,29.90,ESE,107,4.0,8.0,90,0.00,,,0.10,Wunderground v.1.15,2013-06-23 16:25:00,
2013-06-23 11:35:00,72.9,69.5,29.90,East,99,3.0,8.0,89,0.00,,,0.10,Wunderground v.1.15,2013-06-23 16:35:00,
2013-06-23 11:40:00,73.3,69.5,29.90,East,100,3.0,8.0,88,0.00,,,0.10,Wunderground v.1.15,2013-06-23 16:40:00,
2013-06-23 11:45:00,73.6,69.8,29.90,WSW,242,4.0,8.0,88,0.00,,,0.10,Wunderground v.1.15,2013-06-23 16:45:00,
2013-06-23 11:50:00,74.2,69.4,29.90,SSW,202,4.0,8.0,85,0.00,,,0.10,Wunderground v.1.15,2013-06-23 16:50:00,
2013-06-23 11:55:00,74.5,69.3,29.89,WSW,240,5.0,8.0,84,0.00,,,0.10,Wunderground v.1.15,2013-06-23 16:55:00,
2013-06-23 12:00:00,74.6,69.1,29.89,South,178,4.0,8.0,83,0.00,,,0.10,Wunderground v.1.15,2013-06-23 17:00:00,
2013-06-23 12:05:00,75.0,69.1,29.89,SSE,163,3.0,8.0,82,0.00,,,0.10,Wunderground v.1.15,2013-06-23 17:05:00,
2013-06-23 12:15:00,75.0,68.8,29.89,South,180,4.0,9.0,81,0.00,,,0.10,Wunderground v.1.15,2013-06-23 17:15:00,
2013-06-23 12:20:00,74.3,67.7,29.89,South,178,4.0,8.0,80,0.00,,,0.10,Wunderground v.1.15,2013-06-23 17:20:00,
2013-06-23 12:25:00,73.7,67.9,29.89,SSE,164,5.0,8.0,82,0.00,,,0.10,Wunderground v.1.15,2013-06-23 17:25:00,
2013-06-23 12:30:00,73.8,68.0,29.89,South,182,3.0,3.0,82,0.00,,,0.10,Wunderground v.1.15,2013-06-23 17:30:00,
2013-06-23 12:35:00,73.9,68.1,29.89,SE,128,2.0,8.0,82,0.00,,,0.10,Wunderground v.1.15,2013-06-23 17:35:00,
2013-06-23 12:40:00,74.2,68.3,29.88,South,190,3.0,3.0,82,0.00,,,0.10,Wunderground v.1.15,2013-06-23 17:40:00,
2013-06-23 12:45:00,74.7,68.5,29.88,South,178,2.0,8.0,81,0.00,,,0.10,Wunderground v.1.15,2013-06-23 17:45:00,
2013-06-23 12:50:00,75.2,68.2,29.88,SE,127,2.0,2.0,79,0.00,,,0.10,Wunderground v.1.15,2013-06-23 17:50:00,
2013-06-23 12:55:00,75.5,68.5,29.88,ESE,112,2.0,8.0,79,0.00,,,0.10,Wunderground v.1.15,2013-06-23 17:55:00,
2013-06-23 13:00:00,75.6,68.6,29.88,SSE,167,2.0,8.0,79,0.00,,,0.10,Wunderground v.1.15,2013-06-23 18:00:00,
2013-06-23 13:05:00,75.9,68.5,29.87,SSE,162,3.0,8.0,78,0.00,,,0.10,Wunderground v.1.15,2013-06-23 18:05:00,
2013-06-23 13:10:00,75.9,68.2,29.87,SSE,151,4.0,4.0,77,0.00,,,0.10,Wunderground v.1.15,2013-06-23 18:10:00,
2013-06-23 13:15:00,75.8,68.4,29.87,East,98,4.0,8.0,78,0.00,,,0.10,Wunderground v.1.15,2013-06-23 18:15:00,
2013-06-23 13:20:00,76.1,68.7,29.86,SE,126,4.0,8.0,78,0.00,,,0.10,Wunderground v.1.15,2013-06-23 18:20:00,
2013-06-23 13:25:00,76.6,68.8,29.86,SE,136,4.0,8.0,77,0.00,,,0.10,Wunderground v.1.15,2013-06-23 18:25:00,
2013-06-23 13:35:00,78.4,68.6,29.86,SSW,203,5.0,9.0,72,0.00,,,0.10,Wunderground v.1.15,2013-06-23 18:35:00,
2013-06-23 13:40:00,78.8,68.6,29.85,SSW,202,5.0,8.0,71,0.00,,,0.10,Wunderground v.1.15,2013-06-23 18:40:00,
2013-06-23 13:45:00,79.3,67.8,29.85,WSW,239,6.0,8.0,68,0.00,,,0.10,Wunderground v.1.15,2013-06-23 18:45:00,
2013-06-23 13:50:00,79.5,68.9,29.85,South,181,7.0,8.0,70,0.00,,,0.10,Wunderground v.1.15,2013-06-23 18:50:00,
2013-06-23 13:55:00,80.0,68.9,29.85,SSW,198,7.0,8.0,69,0.00,,,0.10,Wunderground v.1.15,2013-06-23 18:55:00,
2013-06-23 14:00:00,80.4,69.3,29.84,SSW,192,6.0,8.0,69,0.00,,,0.10,Wunderground v.1.15,2013-06-23 19:00:00,
2013-06-23 14:05:00,80.8,69.2,29.84,SW,217,6.0,8.0,68,0.00,,,0.10,Wunderground v.1.15,2013-06-23 19:05:00,
2013-06-23 14:10:00,81.1,69.1,29.84,SSW,198,6.0,8.0,67,0.00,,,0.10,Wunderground v.1.15,2013-06-23 19:10:00,
2013-06-23 14:15:00,81.4,69.8,29.84,South,182,7.0,8.0,68,0.00,,,0.10,Wunderground v.1.15,2013-06-23 19:15:00,
2013-06-23 14:25:00,81.6,69.6,29.83,SW,232,7.0,12.0,67,0.00,,,0.10,Wunderground v.1.15,2013-06-23 19:25:00,
2013-06-23 14:30:00,82.0,70.0,29.83,SSE,149,6.0,8.0,67,0.00,,,0.10,Wunderground v.1.15,2013-06-23 19:30:00,
2013-06-23 14:40:00,80.1,67.7,29.83,SSE,150,2.0,2.0,66,0.00,,,0.10,Wunderground v.1.15,2013-06-23 19:40:00,
2013-06-23 14:50:00,78.0,68.2,29.82,SSE,165,0.0,8.0,72,0.00,,,0.10,Wunderground v.1.15,2013-06-23 19:50:00,
2013-06-23 14:55:00,77.5,68.2,29.82,SE,146,0.0,8.0,73,0.00,,,0.10,Wunderground v.1.15,2013-06-23 19:55:00,
2013-06-23 15:00:00,77.7,68.7,29.81,South,175,0.0,8.0,74,0.00,,,0.10,Wunderground v.1.15,2013-06-23 20:00:00,
2013-06-23 15:05:00,77.8,68.4,29.81,South,169,0.0,8.0,73,0.00,,,0.10,Wunderground v.1.15,2013-06-23 20:05:00,
2013-06-23 15:15:00,77.9,69.3,29.80,SE,144,0.0,8.0,75,0.00,,,0.10,Wunderground v.1.15,2013-06-23 20:15:00,
2013-06-23 15:20:00,77.8,69.2,29.80,SSE,148,0.0,8.0,75,0.00,,,0.10,Wunderground v.1.15,2013-06-23 20:20:00,
2013-06-23 15:25:00,77.7,69.9,29.80,ESE,118,0.0,8.0,77,0.00,,,0.10,Wunderground v.1.15,2013-06-23 20:25:00,
2013-06-23 15:30:00,77.9,69.7,29.80,SE,138,0.0,8.0,76,0.00,,,0.10,Wunderground v.1.15,2013-06-23 20:30:00,
2013-06-23 15:35:00,78.2,70.0,29.80,South,180,0.0,8.0,76,0.00,,,0.10,Wunderground v.1.15,2013-06-23 20:35:00,
2013-06-23 15:40:00,78.8,70.6,29.81,SE,132,0.0,8.0,76,0.00,,,0.10,Wunderground v.1.15,2013-06-23 20:40:00,
2013-06-23 15:45:00,79.3,70.7,29.81,SSE,166,0.0,8.0,75,0.00,,,0.10,Wunderground v.1.15,2013-06-23 20:45:00,
2013-06-23 15:55:00,79.9,70.5,29.80,SSW,196,0.0,8.0,73,0.00,,,0.10,Wunderground v.1.15,2013-06-23 20:55:00,
2013-06-23 16:00:00,79.7,70.3,29.80,SW,225,0.0,8.0,73,0.00,,,0.10,Wunderground v.1.15,2013-06-23 21:00:00,
2013-06-23 16:05:00,79.8,70.8,29.80,SE,146,0.0,8.0,74,0.00,,,0.10,Wunderground v.1.15,2013-06-23 21:05:00,
2013-06-23 16:10:00,80.1,71.1,29.80,SSE,161,0.0,8.0,74,0.00,,,0.10,Wunderground v.1.15,2013-06-23 21:10:00,
2013-06-23 16:15:00,80.2,70.4,29.80,SE,141,0.0,8.0,72,0.00,,,0.10,Wunderground v.1.15,2013-06-23 21:15:00,
2013-06-23 16:25:00,80.5,71.0,29.80,SSW,192,0.0,8.0,73,0.00,,,0.10,Wunderground v.1.15,2013-06-23 21:25:00,
2013-06-23 16:30:00,80.7,70.8,29.79,SSW,209,0.0,8.0,72,0.00,,,0.10,Wunderground v.1.15,2013-06-23 21:30:00,
2013-06-23 16:35:00,80.8,70.9,29.79,SSE,157,0.0,8.0,72,0.00,,,0.10,Wunderground v.1.15,2013-06-23 21:35:00,
2013-06-23 16:45:00,81.2,71.7,29.80,SE,132,0.0,8.0,73,0.00,,,0.10,Wunderground v.1.15,2013-06-23 21:45:00,
2013-06-23 16:50:00,81.2,71.7,29.80,SW,217,0.0,8.0,73,0.00,,,0.10,Wunderground v.1.15,2013-06-23 21:50:00,
2013-06-23 16:55:00,81.4,71.9,29.80,SSE,167,0.0,8.0,73,0.00,,,0.10,Wunderground v.1.15,2013-06-23 21:55:00,
2013-06-23 17:00:00,81.9,72.8,29.80,SSE,147,0.0,8.0,74,0.00,,,0.10,Wunderground v.1.15,2013-06-23 22:00:00,
2013-06-23 17:05:00,82.4,73.3,29.79,WSW,252,0.0,8.0,74,0.00,,,0.10,Wunderground v.1.15,2013-06-23 22:05:00,
2013-06-23 17:10:00,82.4,72.9,29.79,SW,221,0.0,8.0,73,0.00,,,0.10,Wunderground v.1.15,2013-06-23 22:10:00,
2013-06-23 17:15:00,82.3,72.8,29.79,SSW,204,0.0,8.0,73,0.00,,,0.10,Wunderground v.1.15,2013-06-23 22:15:00,
2013-06-23 17:20:00,82.4,72.9,29.79,SSW,198,0.0,8.0,73,0.00,,,0.10,Wunderground v.1.15,2013-06-23 22:20:00,
2013-06-23 17:25:00,82.7,73.6,29.79,SW,223,0.0,8.0,74,0.00,,,0.10,Wunderground v.1.15,2013-06-23 22:25:00,
2013-06-23 17:30:00,83.1,73.5,29.79,South,189,0.0,8.0,73,0.00,,,0.10,Wunderground v.1.15,2013-06-23 22:30:00,
2013-06-23 17:35:00,83.7,73.7,29.79,SW,228,0.0,8.0,72,0.00,,,0.10,Wunderground v.1.15,2013-06-23 22:35:00,
2013-06-23 17:40:00,84.1,73.3,29.79,SW,219,0.0,8.0,70,0.00,,,0.10,Wunderground v.1.15,2013-06-23 22:40:00,
2013-06-23 17:50:00,84.7,73.0,29.79,SW,219,0.0,8.0,68,0.00,,,0.10,Wunderground v.1.15,2013-06-23 22:50:00,
2013-06-23 17:55:00,84.8,73.1,29.79,SW,232,0.0,8.0,68,0.00,,,0.10,Wunderground v.1.15,2013-06-23 22:55:00,
2013-06-23 18:00:00,84.9,73.2,29.79,SSW,206,0.0,8.0,68,0.00,,,0.10,Wunderground v.1.15,2013-06-23 23:00:00,
2013-06-23 18:10:00,84.8,73.1,29.79,WSW,237,0.0,8.0,68,0.00,,,0.10,Wunderground v.1.15,2013-06-23 23:10:00,
2013-06-23 18:15:00,84.8,73.1,29.79,West,265,3.0,8.0,68,0.00,,,0.10,Wunderground v.1.15,2013-06-23 23:15:00,
2013-06-23 18:25:00,84.7,72.5,29.79,SW,232,5.0,12.0,67,0.00,,,0.10,Wunderground v.1.15,2013-06-23 23:25:00,
2013-06-23 18:35:00,84.5,72.8,29.79,SW,232,4.0,7.0,68,0.00,,,0.10,Wunderground v.1.15,2013-06-23 23:35:00,
2013-06-23 18:40:00,84.3,72.6,29.79,SW,215,4.0,8.0,68,0.00,,,0.10,Wunderground v.1.15,2013-06-23 23:40:00,
2013-06-23 18:45:00,84.2,72.9,29.79,SW,227,6.0,8.0,69,0.00,,,0.10,Wunderground v.1.15,2013-06-23 23:45:00,
2013-06-23 18:50:00,83.9,72.6,29.80,SW,224,6.0,6.0,69,0.00,,,0.10,Wunderground v.1.15,2013-06-23 23:50:00,
2013-06-23 18:55:00,83.7,72.4,29.80,South,188,6.0,8.0,69,0.00,,,0.10,Wunderground v.1.15,2013-06-23 23:55:00,
2013-06-23 19:00:00,83.5,72.7,29.80,South,178,4.0,8.0,70,0.00,,,0.10,Wunderground v.1.15,2013-06-24 00:00:00,
2013-06-23 19:05:00,83.4,72.6,29.80,South,190,3.0,8.0,70,0.00,,,0.10,Wunderground v.1.15,2013-06-24 00:05:00,
2013-06-23 19:10:00,83.2,72.4,29.80,SW,234,4.0,8.0,70,0.00,,,0.10,Wunderground v.1.15,2013-06-24 00:10:00,
2013-06-23 19:20:00,83.0,72.6,29.80,SW,215,5.0,9.0,71,0.00,,,0.10,Wunderground v.1.15,2013-06-24 00:20:00,
2013-06-23 19:25:00,82.7,72.7,29.81,WSW,244,5.0,9.0,72,0.00,,,0.10,Wunderground v.1.15,2013-06-24 00:25:00,
2013-06-23 19:30:00,82.6,72.7,29.81,SSW,205,6.0,8.0,72,0.00,,,0.10,Wunderground v.1.15,2013-06-24 00:30:00,
2013-06-23 19:35:00,82.5,72.6,29.81,SW,221,6.0,8.0,72,0.00,,,0.10,Wunderground v.1.15,2013-06-24 00:35:00,
2013-06-23 19:40:00,82.5,73.0,29.81,SSW,203,5.0,5.0,73,0.00,,,0.10,Wunderground v.1.15,2013-06-24 00:40:00,
2013-06-23 19:45:00,82.3,72.8,29.81,SSW,200,5.0,7.0,73,0.00,,,0.10,Wunderground v.1.15,2013-06-24 00:45:00,
2013-06-23 19:50:00,82.0,72.5,29.81,SSW,198,5.0,8.0,73,0.00,,,0.10,Wunderground v.1.15,2013-06-24 00:50:00,
2013-06-23 19:55:00,81.8,72.7,29.81,SW,227,5.0,8.0,74,0.00,,,0.10,Wunderground v.1.15,2013-06-24 00:55:00,
2013-06-23 20:00:00,81.6,72.5,29.81,SW,223,5.0,5.0,74,0.00,,,0.10,Wunderground v.1.15,2013-06-24 01:00:00,
2013-06-23 20:05:00,81.5,72.8,29.81,SSW,200,5.0,8.0,75,0.00,,,0.10,Wunderground v.1.15,2013-06-24 01:05:00,
2013-06-23 20:10:00,81.3,72.6,29.82,SSW,199,5.0,8.0,75,0.00,,,0.10,Wunderground v.1.15,2013-06-24 01:10:00,
2013-06-23 20:15:00,81.1,72.4,29.82,SW,226,5.0,8.0,75,0.00,,,0.10,Wunderground v.1.15,2013-06-24 01:15:00,
2013-06-23 20:20:00,80.8,72.5,29.82,SSW,198,4.0,4.0,76,0.00,,,0.10,Wunderground v.1.15,2013-06-24 01:20:00,
2013-06-23 20:25:00,80.7,72.4,29.82,SW,219,4.0,8.0,76,0.00,,,0.10,Wunderground v.1.15,2013-06-24 01:25:00,
2013-06-23 20:30:00,80.4,72.5,29.82,SSW,209,3.0,3.0,77,0.00,,,0.10,Wunderground v.1.15,2013-06-24 01:30:00,
2013-06-23 20:35:00,80.2,72.3,29.82,SW,222,3.0,8.0,77,0.00,,,0.10,Wunderground v.1.15,2013-06-24 01:35:00,
2013-06-23 20:40:00,80.1,72.2,29.82,SW,225,3.0,3.0,77,0.00,,,0.10,Wunderground v.1.15,2013-06-24 01:40:00,
2013-06-23 20:45:00,80.0,72.5,29.82,SW,215,2.0,8.0,78,0.00,,,0.10,Wunderground v.1.15,2013-06-24 01:45:00,
2013-06-23 20:50:00,79.8,72.3,29.82,SSW,202,1.0,1.0,78,0.00,,,0.10,Wunderground v.1.15,2013-06-24 01:50:00,
2013-06-23 20:55:00,79.5,72.0,29.82,SW,223,1.0,8.0,78,0.00,,,0.10,Wunderground v.1.15,2013-06-24 01:55:00,
2013-06-23 21:00:00,79.2,72.1,29.82,SW,222,0.0,8.0,79,0.00,,,0.10,Wunderground v.1.15,2013-06-24 02:00:00,
2013-06-23 21:05:00,78.9,72.2,29.83,SW,223,0.0,8.0,80,0.00,,,0.10,Wunderground v.1.15,2013-06-24 02:05:00,
2013-06-23 21:10:00,78.5,72.2,29.83,SW,222,0.0,8.0,81,0.00,,,0.10,Wunderground v.1.15,2013-06-24 02:10:00,
2013-06-23 21:15:00,78.2,71.9,29.83,SW,223,0.0,8.0,81,0.00,,,0.10,Wunderground v.1.15,2013-06-24 02:15:00,
2013-06-23 21:20:00,77.9,72.0,29.83,SW,223,0.0,8.0,82,0.00,,,0.10,Wunderground v.1.15,2013-06-24 02:20:00,
2013-06-23 21:25:00,77.6,71.7,29.83,SW,223,0.0,8.0,82,0.00,,,0.10,Wunderground v.1.15,2013-06-24 02:25:00,
2013-06-23 21:30:00,77.4,71.8,29.83,SW,222,0.0,8.0,83,0.00,,,0.10,Wunderground v.1.15,2013-06-24 02:30:00,
2013-06-23 21:35:00,77.2,71.6,29.83,SW,223,0.0,8.0,83,0.00,,,0.10,Wunderground v.1.15,2013-06-24 02:35:00,
2013-06-23 21:40:00,76.8,71.6,29.83,SW,222,0.0,8.0,84,0.00,,,0.10,Wunderground v.1.15,2013-06-24 02:40:00,
2013-06-23 21:45:00,76.6,71.7,29.84,SW,222,0.0,8.0,85,0.00,,,0.10,Wunderground v.1.15,2013-06-24 02:45:00,
2013-06-23 21:50:00,76.3,71.5,29.84,SW,223,0.0,8.0,85,0.00,,,0.10,Wunderground v.1.15,2013-06-24 02:50:00,
2013-06-23 22:00:00,75.6,71.1,29.83,SW,223,0.0,8.0,86,0.00,,,0.10,Wunderground v.1.15,2013-06-24 03:00:00,
2013-06-23 22:05:00,75.4,70.9,29.83,SW,223,0.0,8.0,86,0.00,,,0.10,Wunderground v.1.15,2013-06-24 03:05:00,
2013-06-23 22:10:00,75.1,71.0,29.83,SSW,196,0.0,8.0,87,0.00,,,0.10,Wunderground v.1.15,2013-06-24 03:10:00,
2013-06-23 22:15:00,74.9,71.1,29.83,SSW,200,0.0,8.0,88,0.00,,,0.10,Wunderground v.1.15,2013-06-24 03:15:00,
2013-06-23 22:20:00,74.9,71.1,29.83,SSW,203,0.0,8.0,88,0.00,,,0.10,Wunderground v.1.15,2013-06-24 03:20:00,
2013-06-23 22:25:00,74.9,71.1,29.84,SW,236,0.0,8.0,88,0.00,,,0.10,Wunderground v.1.15,2013-06-24 03:25:00,
2013-06-23 22:30:00,75.3,71.5,29.84,WSW,252,1.0,8.0,88,0.00,,,0.10,Wunderground v.1.15,2013-06-24 03:30:00,
2013-06-23 22:35:00,75.7,71.9,29.84,SW,220,2.0,8.0,88,0.00,,,0.10,Wunderground v.1.15,2013-06-24 03:35:00,
2013-06-23 22:40:00,76.2,72.0,29.84,WSW,241,3.0,3.0,87,0.00,,,0.10,Wunderground v.1.15,2013-06-24 03:40:00,
2013-06-23 22:45:00,76.5,72.0,29.84,WSW,248,3.0,8.0,86,0.00,,,0.10,Wunderground v.1.15,2013-06-24 03:45:00,
2013-06-23 22:50:00,76.4,71.6,29.84,West,259,3.0,8.0,85,0.00,,,0.10,Wunderground v.1.15,2013-06-24 03:50:00,
2013-06-23 22:55:00,76.4,71.6,29.84,SW,235,3.0,8.0,85,0.00,,,0.10,Wunderground v.1.15,2013-06-24 03:55:00,
2013-06-23 23:00:00,76.5,71.7,29.85,SW,220,3.0,3.0,85,0.00,,,0.10,Wunderground v.1.15,2013-06-24 04:00:00,
2013-06-23 23:05:00,76.6,71.7,29.85,SW,223,3.0,8.0,85,0.00,,,0.10,Wunderground v.1.15,2013-06-24 04:05:00,
2013-06-23 23:15:00,76.5,71.7,29.85,SW,225,3.0,8.0,85,0.00,,,0.10,Wunderground v.1.15,2013-06-24 04:15:00,
2013-06-23 23:20:00,76.4,71.6,29.85,SW,232,3.0,3.0,85,0.00,,,0.10,Wunderground v.1.15,2013-06-24 04:20:00,
2013-06-23 23:25:00,76.1,71.3,29.85,SW,221,3.0,8.0,85,0.00,,,0.10,Wunderground v.1.15,2013-06-24 04:25:00,
2013-06-23 23:30:00,76.0,71.2,29.85,SW,216,3.0,8.0,85,0.00,,,0.10,Wunderground v.1.15,2013-06-24 04:30:00,
2013-06-23 23:35:00,75.9,71.4,29.85,SW,225,3.0,8.0,86,0.00,,,0.10,Wunderground v.1.15,2013-06-24 04:35:00,
2013-06-23 23:40:00,75.8,71.3,29.85,SW,226,3.0,8.0,86,0.00,,,0.10,Wunderground v.1.15,2013-06-24 04:40:00,
2013-06-23 23:50:00,75.9,71.4,29.86,WSW,249,4.0,8.0,86,0.00,,,0.10,Wunderground v.1.15,2013-06-24 04:50:00,
2013-06-23 23:55:00,75.8,71.3,29.86,SW,229,4.0,8.0,86,0.00,,,0.10,Wunderground v.1.15,2013-06-24 04:55:00,